Flag for U.S.A. Weather past 2 weeks in Hialeah, Florida, U.S.A.

Now
90 °F

Scattered clouds.


Feels Like: 98 °F
Forecast: 81 / 91 °F
Wind: 12 mph from Southeast

Location: Opa Locka Airport

Current Time: Jul 5, 2015 at 3:30:17 PM

Latest Report: Jul 5, 2015 at 2:53 PM


Visibility: 10 mi

Pressure: 30.14 "Hg

Humidity: 57%

Dew point: 73 °F

Location of HialeahLocation

Historic Weather in Hialeah — Graph

°F

Hialeah temperature yesterday

Maximum temperature yesterday: 92 °F (at 1:53 PM)
Minimum temperature yesterday: 78 °F (at 3:53 AM)
Average temperature yesterday: 85 °F

Past Weeks' High & Low Weather Summary

 TemperatureHumidityPressure
High95 °F (Jun 30, 12:53 PM)96% (Jun 27, 3:03 PM)30.18 "Hg (Jun 27, 3:03 PM)
Low74 °F (Jun 29, 5:53 PM)44% (Jun 30, 12:53 PM)30.03 "Hg (Jul 3, 6:53 PM)
Average84 °F70%30.10 "Hg
* Reported Jun 20 1:53 PM — Jul 5 1:53 PM, Hialeah, Weather by CustomWeather, © 2015

Note: Actual official high and low records may vary slightly from our data, if they occured in-between our weather recording intervals... More about our weather records

Advertising

Hialeah weather history for previous 24 hours

 ConditionsComfort  
Time TempWeatherWind HumidityBarometerVisibility
1:53 PM
Sun, Jul 5
92 °FPassing clouds.16 mph54%30.15 "Hg10 mi
12:53 PM92 °FPassing clouds.13 mph52%30.16 "Hg10 mi
11:53 AM89 °FScattered clouds.9 mph57%30.18 "Hg10 mi
10:53 AM88 °FPassing clouds.12 mph61%30.17 "Hg10 mi
9:53 AM87 °FScattered clouds.15 mph61%30.16 "Hg10 mi
8:53 AM86 °FScattered clouds.12 mph65%30.15 "Hg10 mi
7:53 AM84 °FPassing clouds.8 mph72%30.14 "Hg10 mi
6:53 AM82 °FPassing clouds.8 mph77%30.13 "Hg10 mi
5:53 AM82 °FClear.6 mph77%30.11 "Hg10 mi
4:53 AM83 °FClear.9 mph74%30.11 "Hg10 mi
3:53 AM83 °FClear.9 mph74%30.10 "Hg10 mi
2:53 AM83 °FClear.7 mph74%30.11 "Hg10 mi
1:53 AM84 °FPassing clouds.6 mph74%30.12 "Hg10 mi
12:53 AM84 °FClear.6 mph74%30.14 "Hg10 mi
11:53 PM
Sat, Jul 4
84 °FPassing clouds.8 mph77%30.14 "Hg10 mi
10:53 PM84 °FPassing clouds.8 mph74%30.13 "Hg10 mi
9:53 PM84 °FPassing clouds.8 mph74%30.11 "Hg10 mi
8:53 PM84 °FSunny.8 mph72%30.10 "Hg10 mi
7:53 PM85 °FSunny.7 mph70%30.10 "Hg10 mi
6:53 PM88 °FSunny.13 mph59%30.08 "Hg10 mi
5:53 PM89 °FPassing clouds.12 mph57%30.08 "Hg10 mi
4:53 PM90 °FSunny.14 mph56%30.08 "Hg10 mi
3:53 PM90 °FPassing clouds.14 mph56%30.09 "Hg10 mi
Weather by CustomWeather, © 2015

See weather overviewHow to use our weather pages